« Back
NWS Peachtree City, Ga » Text Product » GA Regional Weather Roundup


Printer-friendly Version
Current Version              Previous Versions:   1  2  3  4  5  6  7  8  9  

Regional Weather Roundup

656
ASUS42 KFFC 250103
RWRGA
WEATHER ROUNDUP FOR GEORGIA
NATIONAL WEATHER SERVICE PEACHTREE CITY GA
900 PM EDT THU APR 24 2014

NOTE: "FAIR" INDICATES FEW OR NO CLOUDS BELOW 12,000 FEET WITH NO
SIGNIFICANT WEATHER AND/OR OBSTRUCTIONS TO VISIBILITY.

* = USE WITH CAUTION. THE STATIONS MARKED WITH AN ASTERISK MAY NOT
REPORT WEATHER SUCH AS PRECIPITATION, FOG, OR THUNDER AND ARE NOT
QUALITY CONTROLLED BY NWS.

THE REMARK "TC" DENOTES TEMPERATURE READING IN DEGREES CELSIUS.

GAZ001>058-250200-
NORTH GEORGIA

CITY           SKY/WX    TMP DP  RH WIND       PRES   REMARKS
ATLANTA        MOCLDY    72  49  44 S6        29.91S
ATHENS         CLEAR     65  52  62 E6        29.92S
CHAMBLEE       PTCLDY    70  49  47 SE3       29.91S
PEACHTREE CITY PTCLDY    64  58  80 CALM      29.91S
ROME           MOCLDY    68  54  60 CALM      29.88R
WEST ATLANTA   PTCLDY    73  51  46 SE6       29.90S
GAINESVILLE    PTCLDY    69  45  41 E6        29.94F
CARTERSVILLE   PTCLDY    66  52  60 S5        29.90R


CITY           SKY/WX    TMP DP  RH WIND       PRES   REMARKS
DALTON*        PTCLDY    68  54  60 CALM      29.88R
LAWRENCEVILLE* CLEAR     68  48  49 CALM      29.91F
MARIETTA       MOCLDY    72  51  46 SE3       29.91R
KENNESAW*      PTCLDY    73  46  38 S6        29.91S
$$

GAZ059>098-102>109-250200-
CENTRAL GEORGIA

CITY           SKY/WX    TMP DP  RH WIND       PRES   REMARKS
AUGUSTA-BUSH   LGT RAIN  70  57  63 SE7       29.93S
AUGUSTA-DANIEL MOCLDY    74  55  51 SE9       29.95R
COLUMBUS       CLEAR     73  53  49 E3        29.89R
MACON          CLEAR     67  54  63 SE3       29.91S


CITY           SKY/WX    TMP DP  RH WIND       PRES   REMARKS
LAGRANGE*      CLEAR     68  58  69 CALM      29.89F
SYLVANIA*      CLEAR     70  61  74 SE5       29.97S
MILLEDGEVILLE* CLEAR     68  50  52 CALM      29.92R
$$

GAZ099>101-110>166-250200-
SOUTH GEORGIA

CITY           SKY/WX    TMP DP  RH WIND       PRES   REMARKS
SAVANNAH       PTCLDY    67  60  78 E8        29.98S
VALDOSTA       PTCLDY    77  60  55 VRB5      29.93S
ALMA           CLEAR     74  61  63 SE6       29.92S
ST SIMONS      CLEAR     70  68  93 E5        29.96S
FT STEWART     CLEAR     67  66  97 E6        29.95S
ALBANY         LGT RAIN  77  61  57 CALM      29.92S
HUNTER AFB     CLEAR     65  62  91 E7        29.97R
BRUNSWICK      CLEAR     72  68  88 E3        29.97S


CITY           SKY/WX    TMP DP  RH WIND       PRES   REMARKS
BAINBRIDGE*    MOCLDY    79  63  57 SW10G17   29.93R
MOULTRIE*      PTCLDY    77  63  61 S3        29.92F
VIDALIA*       CLEAR     73  64  73 SE5       29.94S
DOUGLAS*       CLEAR     73  63  68 CALM      29.93S
$$



USA.gov is the U.S. government's official web portal to all federal, state and local government web resources and services.